TimeCST,TemperatureF,Dew PointF,Humidity,Sea Level PressureIn,VisibilityMPH,Wind Direction,Wind SpeedMPH,Gust SpeedMPH,PrecipitationIn,Events,Conditions,WindDirDegrees,DateUTC
12:53 AM,50.0,45.0,83,30.17,10.0,North,3.5,-,N/A,,Clear,10,2012-11-20 06:53:00
1:53 AM,50.0,45.0,83,30.17,10.0,North,4.6,-,N/A,,Clear,350,2012-11-20 07:53:00
2:53 AM,48.0,44.1,86,30.16,10.0,North,3.5,-,N/A,,Clear,360,2012-11-20 08:53:00
3:53 AM,50.0,44.1,80,30.15,10.0,North,4.6,-,N/A,,Clear,10,2012-11-20 09:53:00
4:53 AM,46.9,43.0,86,30.16,10.0,NNW,5.8,-,N/A,,Clear,340,2012-11-20 10:53:00
5:53 AM,46.9,44.1,90,30.18,7.0,NNW,6.9,-,N/A,,Clear,330,2012-11-20 11:53:00
6:53 AM,50.0,46.0,86,30.18,5.0,NNE,5.8,-,N/A,,Clear,20,2012-11-20 12:53:00
7:53 AM,55.9,46.9,72,30.20,10.0,North,6.9,-,N/A,,Clear,350,2012-11-20 13:53:00
8:53 AM,63.0,48.0,58,30.21,10.0,NNW,5.8,-,N/A,,Clear,330,2012-11-20 14:53:00
9:53 AM,66.0,50.0,56,30.19,10.0,NE,4.6,-,N/A,,Clear,40,2012-11-20 15:53:00
10:53 AM,69.1,51.1,53,30.17,10.0,North,4.6,-,N/A,,Clear,360,2012-11-20 16:53:00
11:53 AM,71.1,51.1,49,30.14,10.0,North,6.9,-,N/A,,Clear,360,2012-11-20 17:53:00
12:53 PM,71.1,51.1,49,30.12,10.0,NNE,6.9,-,N/A,,Partly Cloudy,20,2012-11-20 18:53:00
1:53 PM,69.1,51.1,53,30.10,10.0,NNE,6.9,-,N/A,,Scattered Clouds,20,2012-11-20 19:53:00
2:53 PM,68.0,50.0,52,30.11,10.0,North,9.2,-,N/A,,Mostly Cloudy,360,2012-11-20 20:53:00
3:53 PM,66.9,50.0,54,30.10,10.0,NNW,6.9,-,N/A,,Scattered Clouds,340,2012-11-20 21:53:00
4:53 PM,64.9,50.0,58,30.11,10.0,NNW,3.5,-,N/A,,Mostly Cloudy,340,2012-11-20 22:53:00
5:53 PM,60.1,50.0,69,30.12,10.0,NNW,5.8,-,N/A,,Partly Cloudy,330,2012-11-20 23:53:00
6:53 PM,59.0,51.1,75,30.14,10.0,NNW,4.6,-,N/A,,Partly Cloudy,340,2012-11-21 00:53:00
7:53 PM,57.0,50.0,77,30.14,10.0,NNW,3.5,-,N/A,,Partly Cloudy,330,2012-11-21 01:53:00
8:53 PM,55.0,48.9,80,30.14,10.0,NW,4.6,-,N/A,,Partly Cloudy,320,2012-11-21 02:53:00
9:53 PM,55.0,48.9,80,30.16,10.0,NNW,5.8,-,N/A,,Scattered Clouds,340,2012-11-21 03:53:00
10:53 PM,54.0,48.0,80,30.15,10.0,NNW,4.6,-,N/A,,Scattered Clouds,340,2012-11-21 04:53:00
11:53 PM,51.1,46.9,86,30.14,10.0,NNW,4.6,-,N/A,,Clear,330,2012-11-21 05:53:00